Home > Time Zones > World Clock > Weather > Italy > Monza > Past weeks

Flag for Italy Weather past 2 weeks in Monza, Italy

Now
48 °F

Clear.


Feels Like: 46 °F
Forecast: 33 / 51 °F
Wind: 5 mph from East

Location: Milan / Linate

Current Time: Dec 18, 2014 at 1:46:41 PM

Latest Report: Dec 18, 2014 at 12:50 PM


Visibility: 4 mi

Pressure: 30.15 "Hg

Humidity: 94%

Dew point: 46 °F

Location of MonzaLocation

Historic Weather in Monza — Graph

°F

Monza temperature yesterday

Maximum temperature yesterday: 48 °F (at 1:20 PM)
Minimum temperature yesterday: 39 °F (at 6:20 AM)
Average temperature yesterday: 44 °F

Past Weeks' High & Low Weather Summary

 TemperatureHumidityPressure
High55 °F (Dec 6, 1:50 PM)100% (Dec 4, 2:20 AM)30.24 "Hg (Dec 4, 2:20 AM)
Low30 °F (Dec 10, 6:50 AM)62% (Dec 9, 12:20 PM)29.83 "Hg (Dec 16, 2:50 PM)
Average45 °F94%30.04 "Hg
* Reported Dec 3 12:20 PM — Dec 18 12:50 PM, Monza, Weather by CustomWeather, © 2014

Note: Actual official high and low records may vary slightly from our data, if they occured in-between our weather recording intervals... More about our weather records

Advertising

Monza weather history for previous 24 hours

 ConditionsComfort  
Time TempWeatherWind HumidityBarometerVisibility
12:50 PM
Dec 18
48 °FClear.5 mph94%30.15 "Hg4 mi
12:20 PM48 °FClear.3 mph94%30.12 "Hg4 mi
11:50 AM46 °FClear.2 mph100%30.12 "Hg4 mi
11:20 AM45 °FClear.3 mph100%30.12 "Hg4 mi
10:50 AM45 °FFog.No wind100%30.12 "Hg3 mi
10:20 AM43 °FFog.2 mph100%30.12 "Hg3 mi
9:50 AM43 °FFog.No wind100%30.12 "Hg2 mi
9:20 AM41 °FLight fog.No wind100%30.09 "Hg1 mi
8:50 AM41 °FLight fog.1 mph100%30.09 "Hg1 mi
8:20 AM39 °FScattered clouds.3 mph100%30.07 "Hg1 mi
7:50 AM39 °FLight fog.No wind100%30.07 "Hg1 mi
7:20 AM39 °FFog.5 mph100%30.04 "Hg1 mi
6:50 AM39 °FFog.1 mph100%30.04 "Hg0 mi
6:20 AM39 °FFog.2 mph100%30.04 "Hg0 mi
5:50 AM37 °FFog.2 mph100%30.01 "Hg0 mi
5:20 AM37 °FFog.2 mph100%30.01 "Hg0 mi
4:20 AM39 °FFog.1 mph100%30.01 "Hg0 mi
3:50 AM39 °FFog.2 mph100%29.98 "Hg0 mi
3:20 AM39 °FFog.6 mph100%29.98 "Hg0 mi
2:50 AM39 °FFog.8 mph100%29.98 "Hg0 mi
2:20 AM39 °FFog.3 mph100%29.98 "Hg0 mi
1:50 AM41 °FFog.6 mph100%29.98 "Hg0 mi
1:20 AM41 °FFog.3 mph100%29.98 "Hg0 mi
12:50 AM41 °FFog.7 mph100%29.98 "Hg0 mi
12:20 AM39 °FFog.8 mph100%29.98 "Hg0 mi
11:50 PM
Dec 17
43 °FLight fog.7 mph100%29.95 "Hg1 mi
11:20 PM41 °FLight fog.5 mph100%29.95 "Hg1 mi
10:50 PM41 °FLight fog.2 mph100%29.95 "Hg1 mi
10:20 PM43 °FLight fog.No wind100%29.95 "Hg4 mi
9:50 PM43 °FFog.2 mph100%29.95 "Hg4 mi
9:20 PM43 °FPassing clouds.3 mph100%29.95 "Hg4 mi
8:50 PM45 °FPassing clouds.5 mph100%29.95 "Hg4 mi
8:20 PM45 °FPassing clouds.2 mph100%29.95 "Hg4 mi
7:50 PM46 °FPassing clouds.3 mph100%29.92 "Hg4 mi
7:20 PM46 °FPassing clouds.6 mph100%29.92 "Hg4 mi
6:50 PM46 °FPassing clouds.2 mph100%29.92 "Hg4 mi
6:20 PM46 °FPassing clouds.No wind100%29.92 "Hg4 mi
5:50 PM46 °FFog.3 mph100%29.92 "Hg2 mi
5:20 PM46 °FFog.2 mph100%29.92 "Hg2 mi
4:50 PM46 °FFog.2 mph100%29.89 "Hg2 mi
4:20 PM46 °FFog.2 mph100%29.89 "Hg2 mi
3:50 PM46 °FFog.1 mph100%29.89 "Hg2 mi
3:20 PM46 °FFog.1 mph100%29.89 "Hg2 mi
2:50 PM46 °FFog.2 mph100%29.89 "Hg2 mi
2:20 PM46 °FFog.5 mph100%29.92 "Hg2 mi
1:50 PM46 °FFog.6 mph100%29.92 "Hg2 mi
1:20 PM48 °FBroken clouds.3 mph100%29.92 "Hg4 mi
Weather by CustomWeather, © 2014

See weather overviewHow to use our weather pages